EW8308 Weather Reports


time (UTC)temp
F
wind
direction
speed
knots
gust
knots
rain 1hr
in
rain 24hr
in
rain mn
in
humidity
%
barometer
mb
20260505094254 56 250 0.0 1.7 0.00 0.00 0.00 49 1010.3
20260505093253 56 250 0.0 3.5 0.00 0.00 0.00 48 1010.2
20260505092753 57 250 0.0 0.9 0.00 0.00 0.00 48 1010.2
20260505092254 57 250 1.7 5.2 0.00 0.00 0.00 48 1010.2
20260505091753 56 250 1.7 5.2 0.00 0.00 0.00 48 1010.1
20260505091254 56 250 0.9 5.2 0.00 0.00 0.00 50 1010.2
20260505090752 55 250 0.9 5.2 0.00 0.00 0.00 51 1010.2
20260505090253 54 249 0.9 1.7 0.00 0.00 0.00 53 1010.2
20260505085753 54 250 0.9 1.7 0.00 0.00 0.00 54 1010.2
20260505085253 55 250 0.0 2.6 0.00 0.00 0.00 54 1010.1
20260505084253 56 250 0.9 3.5 0.00 0.00 0.00 52 1010.0
20260505083753 56 250 0.9 3.5 0.00 0.00 0.00 52 1010.1
20260505083253 57 249 0.9 3.5 0.00 0.00 0.00 49 1010.0
20260505082753 57 249 0.9 3.5 0.00 0.00 0.00 48 1010.0
20260505082251 57 250 0.9 3.5 0.00 0.00 0.00 49 1010.0
20260505081752 57 250 0.9 4.3 0.00 0.00 0.00 48 1010.0
20260505081249 57 250 1.7 4.3 0.00 0.00 0.00 48 1009.9
20260505080750 57 250 0.9 4.3 0.00 0.00 0.00 48 1010.0
20260505080250 57 249 0.9 2.6 0.00 0.00 0.00 48 1010.0
20260505075748 58 250 0.9 1.7 0.00 0.00 0.00 47 1009.9
20260505075247 58 250 0.9 4.3 0.00 0.00 0.00 47 1009.9
20260505074246 58 250 1.7 6.1 0.00 0.00 0.00 47 1009.8
20260505073747 58 250 0.9 4.3 0.00 0.00 0.00 46 1009.8
20260505073247 58 249 0.9 4.3 0.00 0.00 0.00 46 1009.8
20260505072746 58 249 0.9 4.3 0.00 0.00 0.00 46 1009.8
20260505072244 59 249 1.7 7.8 0.00 0.00 0.00 46 1009.8
20260505071745 59 249 1.7 7.8 0.00 0.00 0.00 46 1009.8
20260505071245 59 250 1.7 5.2 0.00 0.00 0.00 46 1009.8
20260505070743 59 250 2.6 7.0 0.00 0.00 0.00 46 1009.7
20260505064740 59 250 1.7 6.1 0.00 0.00 0.00 46 1009.6
20260505064241 59 250 1.7 6.1 0.00 0.00 0.00 47 1009.4
20260505063739 60 249 1.7 4.3 0.00 0.00 0.00 46 1009.4
20260505063238 60 250 1.7 4.3 0.00 0.00 0.00 46 1009.4
20260505062738 60 250 1.7 5.2 0.00 0.00 0.00 46 1009.4
20260505062238 60 249 2.6 5.2 0.00 0.00 0.00 45 1009.3
20260505061735 61 250 2.6 5.2 0.00 0.00 0.00 44 1009.3
20260505061236 61 250 2.6 8.7 0.00 0.00 0.00 43 1009.3
20260505060735 62 249 3.5 8.7 0.00 0.00 0.00 43 1009.3
20260505060232 62 250 3.5 7.8 0.00 0.00 0.00 43 1009.2
20260505055730 61 249 2.6 7.8 0.00 0.00 0.00 45 1009.2
20260505055228 61 250 2.6 6.1 0.00 0.00 0.00 45 1009.1
20260505054726 61 250 2.6 5.2 0.00 0.00 0.00 45 1009.1
20260505054225 61 249 2.6 5.2 0.00 0.00 0.00 45 1009.1
20260505053225 61 250 1.7 3.5 0.00 0.00 0.00 45 1009.1
20260505052725 62 250 1.7 4.3 0.00 0.00 0.00 44 1009.1
20260505052225 62 249 1.7 4.3 0.00 0.00 0.00 44 1009.1
20260505051726 62 250 1.7 4.3 0.00 0.00 0.00 44 1009.1
20260505051225 63 250 1.7 8.7 0.00 0.00 0.00 43 1009.0
20260505050725 63 250 2.6 8.7 0.00 0.00 0.00 43 1009.0
20260505050224 64 249 3.5 9.6 0.00 0.00 0.00 42 1008.9
20260505041725 66 249 1.7 5.2 0.00 0.00 0.00 40 1008.6
20260505041225 66 250 2.6 6.1 0.00 0.00 0.00 39 1008.6
20260505040725 66 250 3.5 8.7 0.00 0.00 0.00 39 1008.5
20260505040224 67 249 3.5 8.7 0.00 0.00 0.00 38 1008.5
20260505035725 67 250 3.5 7.0 0.00 0.00 0.00 39 1008.5
20260505035225 67 249 3.5 6.1 0.00 0.00 0.00 39 1008.5
20260505033725 67 249 2.6 6.1 0.00 0.00 0.00 39 1008.1
20260505033225 68 249 3.5 6.1 0.00 0.00 0.00 38 1008.0
20260505032725 68 250 3.5 7.0 0.00 0.00 0.00 38 1008.0
20260505032223 68 250 2.6 5.2 0.00 0.00 0.00 38 1007.9
20260505031721 68 250 1.7 5.2 0.00 0.00 0.00 38 1007.9
20260505031219 68 250 1.7 5.2 0.00 0.00 0.00 38 1007.8
20260505030719 69 249 2.6 5.2 0.00 0.00 0.00 38 1007.7
20260505025715 69 249 2.6 5.2 0.00 0.00 0.00 38 1007.6
20260505024716 69 250 2.6 7.8 0.00 0.00 0.00 37 1007.5
20260505023715 71 249 3.5 11.3 0.00 0.00 0.00 36 1007.3
20260505023215 71 250 3.5 11.3 0.00 0.00 0.00 35 1007.2
20260505022713 71 250 1.7 6.1 0.00 0.00 0.00 36 1007.2
20260505021210 73 249 1.7 7.0 0.00 0.00 0.00 34 1007.0
20260505020709 74 249 1.7 4.3 0.00 0.00 0.00 33 1007.0
20260505020207 74 250 1.7 8.7 0.00 0.00 0.00 32 1007.0
20260505015707 74 249 1.7 8.7 0.00 0.00 0.00 31 1006.8
20260505015207 74 249 2.6 7.0 0.00 0.00 0.00 32 1006.8
20260505014707 74 249 2.6 7.8 0.00 0.00 0.00 31 1006.7
20260505014205 74 249 3.5 12.2 0.00 0.00 0.00 31 1006.7
20260505013704 74 249 3.5 12.2 0.00 0.00 0.00 31 1006.7
20260505013205 74 249 3.5 10.4 0.00 0.00 0.00 31 1006.7
20260505012703 74 249 2.6 8.7 0.00 0.00 0.00 32 1006.7
20260505012201 74 250 2.6 8.7 0.00 0.00 0.00 33 1006.7
20260505011701 75 250 2.6 6.1 0.00 0.00 0.00 32 1006.7
20260505011201 75 250 2.6 8.7 0.00 0.00 0.00 32 1006.8
20260505010700 75 250 2.6 10.4 0.00 0.00 0.00 32 1006.8
20260505010159 75 249 2.6 10.4 0.00 0.00 0.00 31 1006.7
20260505005659 75 249 3.5 9.6 0.00 0.00 0.00 32 1006.7
20260505004659 76 250 3.5 9.6 0.00 0.00 0.00 31 1006.7
20260505004200 76 250 3.5 9.6 0.00 0.00 0.00 31 1006.6
20260505003700 76 249 4.3 12.2 0.00 0.00 0.00 32 1006.7
20260505003200 76 250 5.2 12.2 0.00 0.00 0.00 29 1006.7
20260505002659 76 250 4.3 8.7 0.00 0.00 0.00 30 1006.8
20260505002159 76 250 3.5 7.8 0.00 0.00 0.00 30 1006.8
20260505001659 76 250 2.6 12.2 0.00 0.00 0.00 30 1006.8
20260505001159 76 250 3.5 8.7 0.00 0.00 0.00 32 1007.0
20260505000658 77 250 3.5 10.4 0.00 0.00 0.00 33 1007.0
20260504235659 77 250 1.7 7.8 0.00 0.00 0.00 33 1006.8
20260504235159 77 250 2.6 8.7 0.00 0.00 0.00 33 1006.8
20260504234659 77 250 2.6 8.7 0.00 0.00 0.00 30 1007.0
20260504234159 77 250 1.7 5.2 0.00 0.00 0.00 33 1006.8
20260504233657 77 250 2.6 7.0 0.00 0.00 0.00 31 1007.0
20260504233157 77 250 2.6 7.0 0.00 0.00 0.00 31 1007.0
20260504232656 77 250 1.7 5.2 0.00 0.00 0.00 32 1007.0
20260504232157 77 250 0.9 5.2 0.00 0.00 0.00 33 1007.1
20260504231657 77 250 2.6 6.1 0.00 0.00 0.00 42 1007.1
20260504231155 76 249 3.5 7.0 0.00 0.00 0.00 37 1007.1
20260504230654 76 249 4.3 7.8 0.00 0.00 0.00 36 1007.1
20260504230153 75 250 4.3 10.4 0.00 0.00 0.00 40 1007.2
20260504225652 75 249 5.2 10.4 0.00 0.00 0.00 39 1007.2
20260504225153 75 249 5.2 10.4 0.00 0.00 0.00 39 1007.2
20260504224653 75 250 3.5 10.4 0.00 0.00 0.00 37 1007.3
20260504224151 76 249 4.3 8.7 0.00 0.00 0.00 39 1007.3
20260504223649 75 250 3.5 8.7 0.00 0.00 0.00 39 1007.4
20260504223149 75 249 2.6 8.7 0.00 0.00 0.00 42 1007.5
20260504222648 75 249 3.5 7.8 0.00 0.00 0.00 39 1007.6
20260504221147 74 250 4.3 10.4 0.00 0.00 0.00 46 1007.6
20260504220645 74 250 4.3 9.6 0.00 0.00 0.00 41 1007.7
20260504220145 74 250 4.3 9.6 0.00 0.00 0.00 42 1007.8
20260504215143 74 250 3.5 10.4 0.00 0.00 0.00 44 1007.8
20260504214643 74 250 3.5 8.7 0.00 0.00 0.00 43 1007.9
20260504214143 74 249 3.5 8.7 0.00 0.00 0.00 40 1008.0
20260504213643 74 250 3.5 7.8 0.00 0.00 0.00 43 1007.9
20260504212642 74 250 4.3 7.8 0.00 0.00 0.00 42 1008.0
20260504212141 74 249 5.2 10.4 0.00 0.00 0.00 43 1008.0
20260504211641 73 250 4.3 10.4 0.00 0.00 0.00 43 1008.0
20260504211140 74 249 2.6 9.6 0.00 0.00 0.00 49 1008.1
20260504210639 73 250 2.6 9.6 0.00 0.00 0.00 41 1008.3
20260504210137 73 250 2.6 9.6 0.00 0.00 0.00 46 1008.3
20260504205135 73 250 2.6 6.1 0.00 0.00 0.00 44 1008.5
20260504204135 73 250 2.6 7.8 0.00 0.00 0.00 45 1008.4
20260504203135 72 249 3.5 7.8 0.00 0.00 0.00 42 1008.5
20260504202637 72 250 2.6 7.0 0.00 0.00 0.00 43 1008.5
20260504202136 71 250 3.5 8.7 0.00 0.00 0.00 43 1008.6
20260504201636 71 249 3.5 8.7 0.00 0.00 0.00 43 1008.6
20260504201136 71 249 2.6 6.1 0.00 0.00 0.00 45 1008.6
20260504200635 72 250 1.7 6.1 0.00 0.00 0.00 42 1008.6
20260504200131 71 250 1.7 4.3 0.00 0.00 0.00 45 1008.7
20260504195631 71 250 1.7 5.2 0.00 0.00 0.00 44 1008.8
20260504195129 70 249 2.6 6.1 0.00 0.00 0.00 44 1008.8
20260504194629 70 249 2.6 7.0 0.00 0.00 0.00 42 1008.9
20260504194127 70 250 4.3 7.8 0.00 0.00 0.00 41 1008.9
20260504193627 70 250 4.3 11.3 0.00 0.00 0.00 43 1008.8
20260504193127 70 250 3.5 11.3 0.00 0.00 0.00 45 1008.9
20260504192626 70 250 3.5 6.1 0.00 0.00 0.00 40 1008.9
20260504192127 70 249 3.5 7.0 0.00 0.00 0.00 45 1008.9
20260504191627 70 249 2.6 7.0 0.00 0.00 0.00 46 1008.9
20260504191126 70 249 3.5 6.1 0.00 0.00 0.00 43 1009.0
20260504190627 70 249 3.5 6.1 0.00 0.00 0.00 46 1009.0
20260504185627 69 250 3.5 7.0 0.00 0.00 0.00 43 1009.0
20260504184627 69 250 2.6 7.0 0.00 0.00 0.00 41 1009.0
20260504184126 69 250 2.6 5.2 0.00 0.00 0.00 43 1009.0
20260504183627 69 250 2.6 7.0 0.00 0.00 0.00 42 1009.1
20260504183127 69 249 2.6 7.0 0.00 0.00 0.00 40 1009.0
20260504182126 68 249 2.6 8.7 0.00 0.00 0.00 43 1009.1
20260504181627 68 249 2.6 8.7 0.00 0.00 0.00 40 1009.2
20260504181127 68 249 2.6 7.0 0.00 0.00 0.00 42 1009.1
20260504180626 68 249 2.6 6.1 0.00 0.00 0.00 45 1009.2
20260504175626 68 250 2.6 6.1 0.00 0.00 0.00 45 1009.2
20260504175127 68 249 0.9 6.1 0.00 0.00 0.00 43 1009.1
20260504174625 68 249 0.0 4.3 0.00 0.00 0.00 45 1009.2
20260504174122 68 250 0.9 5.2 0.00 0.00 0.00 42 1009.2
20260504173621 67 250 0.9 5.2 0.00 0.00 0.00 45 1009.2
20260504172118 67 249 0.9 4.3 0.00 0.00 0.00 46 1009.2
20260504171617 67 249 0.9 4.3 0.00 0.00 0.00 42 1009.2
20260504171116 67 249 0.0 2.6 0.00 0.00 0.00 41 1009.2
20260504170616 67 250 0.0 0.9 0.00 0.00 0.00 43 1009.2
20260504170116 67 249 0.0 1.7 0.00 0.00 0.00 42 1009.3
20260504151100 58 250 0.0 0.0 0.00 0.00 0.00 59 1009.6
20260504150600 57 249 0.0 0.0 0.00 0.00 0.00 59 1009.6
20260504141052 52 250 0.0 0.0 0.00 0.00 0.00 69 1009.6
20260504140552 51 249 0.0 0.0 0.00 0.00 0.00 68 1009.7
20260504110511 48 250 0.9 2.6 0.00 0.00 0.00 72 1009.3
20260504100504 49 250 0.9 1.7 0.00 0.00 0.00 62 1009.6